Stündliche Wetter Cegled

Heute, 1 Oktober, Donnerstag

Zeit Temperatur Niederschläge Wind Luftdruck Luftfeuchtigkeit
00:00 +13°C° 0.1 mm 4 m/S 745 mmHg 88%
01:00 +13°C° 0 mm 4 m/S 745 mmHg 88%
02:00 +13°C° 0 mm 3 m/S 745 mmHg 88%
03:00 +13°C° 0 mm 3 m/S 745 mmHg 89%
04:00 +13°C° 0 mm 3 m/S 744 mmHg 90%
05:00 +13°C° 0 mm 3 m/S 744 mmHg 89%
06:00 +13°C° 0 mm 3 m/S 744 mmHg 89%
07:00 +13°C° 0 mm 3 m/S 744 mmHg 89%
08:00 +13°C° 0 mm 3 m/S 744 mmHg 87%
09:00 +14°C° 0 mm 3 m/S 744 mmHg 84%
10:00 +15°C° 0 mm 2 m/S 744 mmHg 82%
11:00 +16°C° 0 mm 3 m/S 744 mmHg 79%
12:00 +16°C° 0 mm 3 m/S 744 mmHg 76%
13:00 +17°C° 0 mm 4 m/S 744 mmHg 74%
14:00 +17°C° 0 mm 4 m/S 744 mmHg 73%
15:00 +17°C° 0 mm 4 m/S 744 mmHg 73%
16:00 +17°C° 0 mm 4 m/S 744 mmHg 73%
17:00 +15°C° 0 mm 4 m/S 744 mmHg 75%
18:00 +14°C° 0 mm 4 m/S 744 mmHg 77%
19:00 +14°C° 0 mm 3 m/S 744 mmHg 79%
20:00 +14°C° 0.1 mm 3 m/S 744 mmHg 80%
21:00 +14°C° 0.1 mm 3 m/S 744 mmHg 80%
22:00 +13°C° 0.1 mm 3 m/S 744 mmHg 81%
23:00 +13°C° 0.1 mm 3 m/S 744 mmHg 80%

Morgen, 2 Oktober, Freitag

Zeit Temperatur Niederschläge Wind Luftdruck Luftfeuchtigkeit
00:00 +13°C° 0.1 mm 3 m/S 744 mmHg 79%
01:00 +13°C° 0.1 mm 3 m/S 744 mmHg 78%
02:00 +12°C° 0 mm 3 m/S 744 mmHg 81%
03:00 +12°C° 0 mm 3 m/S 744 mmHg 84%
04:00 +11°C° 0 mm 3 m/S 744 mmHg 87%
05:00 +12°C° 0 mm 3 m/S 744 mmHg 87%
06:00 +12°C° 0 mm 3 m/S 745 mmHg 87%
07:00 +13°C° 0 mm 3 m/S 745 mmHg 88%
08:00 +16°C° 0 mm 3 m/S 745 mmHg 80%
09:00 +18°C° 0 mm 3 m/S 745 mmHg 73%
10:00 +20°C° 0 mm 4 m/S 746 mmHg 65%
11:00 +20°C° 0 mm 4 m/S 746 mmHg 61%
12:00 +21°C° 0 mm 5 m/S 746 mmHg 58%
13:00 +22°C° 0 mm 5 m/S 745 mmHg 54%
14:00 +22°C° 0 mm 4 m/S 745 mmHg 53%
15:00 +22°C° 0 mm 4 m/S 745 mmHg 53%
16:00 +22°C° 0 mm 3 m/S 745 mmHg 52%
17:00 +21°C° 0 mm 3 m/S 746 mmHg 54%
18:00 +20°C° 0 mm 4 m/S 746 mmHg 56%
19:00 +19°C° 0 mm 4 m/S 746 mmHg 57%
20:00 +19°C° 0 mm 4 m/S 746 mmHg 58%
21:00 +19°C° 0 mm 5 m/S 746 mmHg 58%
22:00 +17°C° 0 mm 5 m/S 746 mmHg 59%
23:00 +17°C° 0 mm 5 m/S 746 mmHg 60%

übermorgen, 3 Oktober, Samstag

Zeit Temperatur Niederschläge Wind Luftdruck Luftfeuchtigkeit
00:00 +17°C° 0 mm 5 m/S 746 mmHg 61%
01:00 +16°C° 0 mm 5 m/S 746 mmHg 63%
02:00 +16°C° 0 mm 5 m/S 746 mmHg 64%
03:00 +16°C° 0 mm 5 m/S 746 mmHg 65%
04:00 +15°C° 0 mm 4 m/S 746 mmHg 66%
05:00 +16°C° 0 mm 5 m/S 746 mmHg 66%
06:00 +16°C° 0 mm 5 m/S 746 mmHg 65%
07:00 +16°C° 0 mm 5 m/S 746 mmHg 64%
08:00 +20°C° 0 mm 6 m/S 746 mmHg 58%
09:00 +22°C° 0 mm 7 m/S 746 mmHg 52%
10:00 +24°C° 0 mm 7 m/S 746 mmHg 46%
11:00 +27°C° 0 mm 8 m/S 746 mmHg 44%
12:00 +28°C° 0 mm 8 m/S 745 mmHg 41%
13:00 +29°C° 0 mm 9 m/S 745 mmHg 39%
14:00 +29°C° 0 mm 8 m/S 745 mmHg 40%
15:00 +28°C° 0 mm 7 m/S 744 mmHg 41%
16:00 +28°C° 0 mm 7 m/S 744 mmHg 42%
17:00 +27°C° 0 mm 7 m/S 744 mmHg 43%
18:00 +24°C° 0 mm 7 m/S 744 mmHg 44%
19:00 +23°C° 0 mm 8 m/S 744 mmHg 46%
20:00 +23°C° 0 mm 8 m/S 744 mmHg 46%
21:00 +23°C° 0 mm 8 m/S 744 mmHg 47%
22:00 +22°C° 0 mm 7 m/S 745 mmHg 48%
23:00 +22°C° 0.1 mm 7 m/S 745 mmHg 48%

4 Oktober, Sonntag

Zeit Temperatur Niederschläge Wind Luftdruck Luftfeuchtigkeit
00:00 +22°C° 0.1 mm 6 m/S 744 mmHg 49%
01:00 +22°C° 0.1 mm 6 m/S 744 mmHg 49%
02:00 +21°C° 0.2 mm 5 m/S 745 mmHg 56%
03:00 +20°C° 0.2 mm 5 m/S 745 mmHg 62%
04:00 +19°C° 0.2 mm 4 m/S 745 mmHg 69%
05:00 +18°C° 0.3 mm 3 m/S 745 mmHg 72%
06:00 +17°C° 0.3 mm 3 m/S 746 mmHg 75%
07:00 +17°C° 0.3 mm 3 m/S 747 mmHg 78%
08:00 +18°C° 0 mm 3 m/S 747 mmHg 71%
09:00 +19°C° 0 mm 3 m/S 747 mmHg 64%
10:00 +21°C° 0 mm 4 m/S 748 mmHg 58%
11:00 +22°C° 0 mm 4 m/S 748 mmHg 54%
12:00 +23°C° 0 mm 4 m/S 748 mmHg 49%
13:00 +25°C° 0 mm 4 m/S 748 mmHg 45%
14:00 +24°C° 0 mm 3 m/S 748 mmHg 49%
15:00 +24°C° 0 mm 3 m/S 747 mmHg 53%
16:00 +24°C° 0 mm 2 m/S 747 mmHg 57%
17:00 +22°C° 0.1 mm 3 m/S 747 mmHg 64%
18:00 +21°C° 0.1 mm 3 m/S 747 mmHg 71%
19:00 +20°C° 0.1 mm 3 m/S 747 mmHg 78%
20:00 +19°C° 0.2 mm 3 m/S 747 mmHg 81%
21:00 +19°C° 0.2 mm 3 m/S 747 mmHg 85%
22:00 +18°C° 0.2 mm 3 m/S 747 mmHg 89%
23:00 +18°C° 0.1 mm 3 m/S 747 mmHg 90%

5 Oktober, Montag

Zeit Temperatur Niederschläge Wind Luftdruck Luftfeuchtigkeit
00:00 +17°C° 0.1 mm 3 m/S 746 mmHg 92%
01:00 +17°C° 0.1 mm 3 m/S 746 mmHg 93%
02:00 +17°C° 0 mm 3 m/S 746 mmHg 92%
03:00 +18°C° 0 mm 3 m/S 746 mmHg 90%
04:00 +18°C° 0 mm 3 m/S 746 mmHg 89%
05:00 +18°C° 0 mm 3 m/S 747 mmHg 86%
06:00 +18°C° 0 mm 3 m/S 747 mmHg 82%
07:00 +19°C° 0 mm 3 m/S 747 mmHg 79%
08:00 +20°C° 0 mm 3 m/S 747 mmHg 69%
09:00 +22°C° 0 mm 3 m/S 748 mmHg 58%
10:00 +25°C° 0 mm 4 m/S 748 mmHg 48%
11:00 +26°C° 0 mm 4 m/S 748 mmHg 44%
12:00 +26°C° 0 mm 4 m/S 748 mmHg 40%
13:00 +27°C° 0 mm 4 m/S 748 mmHg 36%
14:00 +27°C° 0 mm 3 m/S 748 mmHg 38%
15:00 +26°C° 0 mm 3 m/S 748 mmHg 40%
16:00 +26°C° 0 mm 2 m/S 748 mmHg 42%
17:00 +25°C° 0 mm 1 m/S 748 mmHg 46%
18:00 +23°C° 0 mm 1 m/S 748 mmHg 49%
19:00 +22°C° 0 mm 1 m/S 748 mmHg 52%
20:00 +21°C° 0.1 mm 1 m/S 748 mmHg 57%
21:00 +21°C° 0.1 mm 1 m/S 748 mmHg 61%
22:00 +19°C° 0.1 mm 2 m/S 748 mmHg 65%
23:00 +19°C° 0.4 mm 2 m/S 748 mmHg 72%

6 Oktober, Dienstag

Zeit Temperatur Niederschläge Wind Luftdruck Luftfeuchtigkeit
00:00 +18°C° 0.4 mm 2 m/S 748 mmHg 78%
01:00 +18°C° 0.4 mm 2 m/S 748 mmHg 85%
02:00 +18°C° 0.8 mm 2 m/S 747 mmHg 88%
03:00 +18°C° 0.8 mm 2 m/S 747 mmHg 91%
04:00 +18°C° 0.8 mm 2 m/S 747 mmHg 94%
05:00 +18°C° 0.7 mm 3 m/S 747 mmHg 94%
06:00 +18°C° 0.7 mm 3 m/S 747 mmHg 94%
07:00 +18°C° 0.7 mm 3 m/S 747 mmHg 94%
08:00 +18°C° 0.9 mm 4 m/S 747 mmHg 90%
09:00 +18°C° 0.9 mm 4 m/S 747 mmHg 86%
10:00 +19°C° 0.9 mm 5 m/S 746 mmHg 82%
11:00 +18°C° 1.3 mm 4 m/S 746 mmHg 84%
12:00 +18°C° 1.3 mm 4 m/S 746 mmHg 85%
13:00 +18°C° 1.3 mm 3 m/S 746 mmHg 87%
14:00 +18°C° 0.4 mm 3 m/S 746 mmHg 86%
15:00 +18°C° 0.4 mm 4 m/S 747 mmHg 85%
16:00 +18°C° 0.4 mm 4 m/S 747 mmHg 84%
17:00 +17°C° 0 mm 4 m/S 747 mmHg 87%
18:00 +15°C° 0 mm 4 m/S 748 mmHg 89%
19:00 +14°C° 0 mm 4 m/S 748 mmHg 91%
20:00 +13°C° 0 mm 3 m/S 749 mmHg 91%
21:00 +13°C° 0 mm 3 m/S 749 mmHg 91%
22:00 +12°C° 0 mm 3 m/S 749 mmHg 91%
23:00 +12°C° 0 mm 3 m/S 750 mmHg 91%
Mehr zeigen

We Need Your Consent

Meteoprog and our Service Providers may store and access personal data such as cookies, device identifiers or other similar technologies on your device and process such data to personalise content and ads, as well as provide social media features and to analyse the traffic.

  • Store and/or access information on your device

    Cookies, device identifiers or other information can be stored or accessed on your device for the purposes indicated above.

  • Personalised ads and content, ad and content measurement, audience insights, and products development

    Ads and content can be personalised based on a profile. More data can be added to better personalise ads and content. Ad and content performance can be measured. Insights about the audience who saw the ads and content can be derived. Such data can be used to develop or improve user’s experience, systems and software.

By clicking ‘I Agree’ you will allow the use of indicated cookies, device identifiers, web beacons or other similar technologies. Your settings can be changed in the browser on your device.

For certain purposes, legitimate interests may be relied on, rather than consent. You can read more about this in our Privacy and Cookie Policy.